Regional Weather Roundup
Issued by NWS Sioux Falls, SD

Home | Current Version | Previous Version | Text Only | Print | Product List | Glossary Off
Versions: 1 2 3 4 5 6 7 8 9 10 11 12 13 14 15 16 17 18 19 20 21 22 23 24 25 26 27 28 29 30 31 32 33 34 35 36 37 38 39 40 41 42 43 44 45 46 47 48 49 50

000
ASUS43 KFSD 040610
RWRFSD

WEATHER ROUNDUP FOR SE SOUTH DAKOTA/SW MINNESOTA/NW IOWA
NATIONAL WEATHER SERVICE SIOUX FALLS SD
1200 AM CST SUN DEC 04 2016

NOTE: "FAIR" INDICATES FEW OR NO CLOUDS BELOW 12,000 FEET WITH NO
SIGNIFICANT WEATHER AND OR OBSTRUCTIONS TO VISIBILITY.


SDZ038>040-050-052>070-040700-
SOUTHEAST SOUTH DAKOTA

CITY           SKY/WX    TMP DP  RH WIND       PRES   REMARKS
BROOKINGS      CLOUDY    32  31  96 S18       29.94F FOG     WCI  20
CHAMBERLAIN    CLEAR     28  25  89 SW3       29.91F
6HR MIN TEMP:  26; 6HR MAX TEMP:  37;

HURON          PTCLDY    32  32 100 S12       29.92R WCI  23
6HR MIN TEMP:  32; 6HR MAX TEMP:  35;

MADISON        CLOUDY    32  32 100 S21G28    29.95S WCI  20
MITCHELL       CLEAR     34  32  92 S13       29.94F WCI  25
6HR MIN TEMP:  34; 6HR MAX TEMP:  37;

SIOUX FALLS    CLOUDY    34  33  96 S14G26    29.99F FOG     WCI  25
6HR MIN TEMP:  34; 6HR MAX TEMP:  35; 6HR PCP: TRACE;

WINNER         FAIR      30  22  72 S7        29.92F WCI  23
YANKTON        CLOUDY    36  30  80 S12       29.99F
$$

MNZ071-072-080-081-089-090-097-098-040700-
SOUTHWEST MINNESOTA

CITY           SKY/WX    TMP DP  RH WIND       PRES   REMARKS
FAIRMONT       CLOUDY    33  32  96 S13       30.07F WCI  24
JACKSON        LGT SNOW  32  32 100 S9        30.03F WCI  24
LUVERNE        CLOUDY    32  32 100 S14       30.01F WCI  22
MARSHALL       CLOUDY    35  32  88 S20       29.98F WCI  24
6HR MIN TEMP:  34; 6HR MAX TEMP:  35; 6HR PCP: TRACE;

MONTEVIDEO     CLOUDY    34  34 100 S10       30.01F WCI  26
PIPESTONE      CLOUDY    34  34 100 S18       29.97F FOG     WCI  23
REDWOOD FALLS  LGT SNOW  34  31  88 S13       30.03F FOG     WCI  25
TRACY          CLOUDY    35  33  92 S14G20    30.00F WCI  26
WINDOM         MIX PCPN  34  34 100 S15       30.02F WCI  24
WORTHINGTON    MIX PCPN  32  32 100 S16       30.02F WCI  21
$$

IAZ001>003-012>014-020>022-031-032-NEZ013-014-SDZ071-040700-
NORTHWEST IOWA

CITY           SKY/WX    TMP DP  RH WIND       PRES   REMARKS
CHEROKEE       CLOUDY    33  33 100 SE9       30.04F WCI  25
DENISON        CLOUDY    34  34 100 SE6       30.03F FOG     WCI  29
ESTHERVILLE    CLOUDY    32  32 100 S16       30.05F WCI  21
LE MARS        CLOUDY    34  34 100 S12       30.03F WCI  25
ORANGE CITY    CLOUDY    34  34 100 S9        30.02F WCI  26
SHELDON        CLOUDY    34  34 100 S12       30.01F WCI  25
SIOUX CITY     CLOUDY    35  33  92 S13       30.04F WCI  26
6HR MIN TEMP:  34; 6HR MAX TEMP:  35; 6HR PCP: TRACE;

SPENCER        CLOUDY    33  33 100 S18       30.04F WCI  22
6HR MIN TEMP:  33; 6HR MAX TEMP:  34; 6HR PCP:  0.01;

STORM LAKE     CLOUDY    32  32 100 SE12      30.04F FOG     WCI  23
$$

ABBREVIATIONS USED IN REMARKS
   TC - TEMPERATURE IN CELSIUS
  WCI - WIND CHILL INDEX
   HX - HEAT INDEX
  VSB - VISIBILITY





USA.gov is the U.S. government's official web portal to all federal, state and local government web resources and services.